Wind_Speed
33 32 32 31 31 31 31 31 31 31 31 32 32 32 33 33 33 33 33 33 34 34 35 35 36 36 37 38 39 40 40 40 41 41 41 42 43 43 44 45 46 46 47
34 33 33 32 32 32 32 32 32 32 32 32 33 33 33 33 33 34 34 34 35 35 35 36 37 38 39 40 41 41 41 42 42 42 43 43 44 45 46 47 47 48 49
35 35 33 33 32 32 32 32 33 33 33 33 33 33 33 34 34 34 34 35 36 36 37 37 38 40 41 42 42 43 43 43 44 45 45 45 44 45 46 47 49 50 51
35 35 34 34 34 33 33 33 33 33 33 33 33 33 34 34 35 35 35 36 36 37 38 39 40 41 42 43 44 44 45 45 46 47 47 47 47 46 45 46 48 50 51
35 35 35 35 34 34 33 33 33 33 33 33 33 33 34 34 35 35 36 36 37 38 39 40 41 42 43 44 46 46 47 47 47 48 48 48 48 49 49 47 48 49 51
36 36 36 36 35 34 33 33 33 33 33 33 33 34 34 34 35 36 37 37 38 39 40 41 42 43 45 46 47 47 48 48 48 49 49 49 50 50 51 50 50 50 51
36 36 35 35 34 33 33 33 33 33 33 33 33 34 34 35 35 36 37 38 39 40 41 42 44 45 46 47 48 48 49 49 49 50 50 51 51 52 52 52 52 52 52
34 35 34 34 33 32 32 32 31 32 32 32 33 34 35 35 35 36 38 39 40 42 43 44 45 47 47 48 49 49 49 49 50 50 51 51 52 53 53 54 55 54 54
33 33 32 32 32 31 31 31 31 31 32 32 33 34 34 35 36 37 39 40 41 43 44 46 47 48 48 49 49 49 50 50 51 51 52 53 53 54 55 56 57 58 58
31 31 31 31 30 30 31 31 31 31 32 32 32 33 34 35 37 39 40 42 43 45 46 47 48 49 49 49 49 50 50 51 51 52 53 53 54 55 56 58 60 61 63
29 29 29 29 30 30 30 30 30 30 31 32 33 34 35 37 39 40 42 44 45 46 47 47 48 49 49 49 50 50 51 52 52 53 54 55 56 57 59 61 63 65 67
29 29 29 29 30 29 29 30 30 31 32 33 34 35 36 38 40 42 43 44 45 46 47 47 48 49 49 50 50 51 52 53 53 55 55 56 58 60 62 65 67 69 71
29 28 29 29 29 29 29 30 31 32 33 34 35 36 37 39 41 42 43 45 46 46 47 48 49 49 50 51 52 52 53 54 55 56 58 59 62 64 66 69 71 73 75
28 28 28 28 29 30 31 32 33 33 34 35 36 37 38 40 41 43 44 45 46 47 48 48 49 50 51 51 52 53 54 55 57 59 61 63 66 68 71 73 75 77 78
27 28 28 29 30 31 32 32 33 34 35 36 37 38 39 41 43 44 45 46 46 47 48 49 50 50 51 52 53 54 56 58 59 62 64 67 69 72 74 76 78 79 80
28 28 29 30 31 32 32 33 33 34 35 36 38 39 41 42 43 44 45 46 47 48 49 49 50 51 52 54 55 57 58 60 63 65 68 70 73 75 77 78 79 81 82
28 28 29 30 31 31 32 33 34 36 36 37 39 40 41 42 43 44 45 46 47 48 48 49 50 52 54 55 57 59 61 64 67 69 71 74 75 77 79 79 79 80 81
29 29 29 30 31 32 32 34 35 36 37 38 39 40 41 42 43 44 45 46 47 48 49 50 52 54 55 57 60 62 65 68 70 72 74 76 77 78 79 79 79 78 77
29 29 30 30 31 32 33 34 35 37 37 38 39 40 41 42 43 44 45 46 47 48 50 51 53 55 58 60 63 66 69 70 72 74 76 77 78 79 80 79 78 75 72
29 29 30 31 32 33 33 35 36 36 37 38 39 40 41 42 43 44 45 47 48 49 51 53 55 58 61 64 67 69 72 73 75 76 77 78 78 78 78 77 74 70 67
29 29 30 30 31 33 34 35 36 36 38 38 39 40 41 42 44 45 46 48 49 51 53 55 58 61 64 66 69 72 74 76 77 77 78 78 77 76 74 72 69 66 64
28 29 29 30 32 33 34 35 36 37 38 39 40 41 42 43 44 45 47 49 51 53 56 58 61 64 66 69 71 73 76 78 79 79 78 76 74 72 70 68 65 63 60
28 29 30 32 33 34 35 36 37 38 38 39 40 41 42 43 44 46 48 51 53 56 59 62 64 66 69 71 73 75 77 78 79 78 76 74 71 69 66 63 60 58 55
30 31 32 33 34 35 36 37 37 38 38 39 40 41 42 44 46 49 51 54 57 59 62 65 67 69 71 73 75 77 78 78 78 76 73 71 68 65 61 57 54 52 49
31 32 33 34 35 36 36 37 37 38 39 40 41 42 44 46 49 51 54 57 59 63 65 68 70 72 74 76 78 79 79 78 77 74 71 67 63 59 55 52 49 46 42
32 33 34 34 35 36 36 37 38 38 39 41 43 45 47 49 52 55 57 60 63 65 68 71 74 75 77 78 79 79 78 76 74 70 66 62 58 53 50 46 43 40 37
Wind_Direction
268 270 272 275 278 279 280 280 280 282 284 285 285 285 284 285 285 284 285 286 287 288 289 289 290 292 293 294 294 295 296 296 295 295 295 294 293 292 291 290 288 287 286
270 272 272 275 277 278 278 279 279 281 282 283 284 284 284 284 284 284 285 287 288 289 289 290 291 293 294 295 296 296 296 296 296 295 295 294 293 293 292 290 289 288 287
270 272 273 275 276 277 277 278 278 279 280 282 283 283 284 283 284 284 286 287 288 289 290 291 293 294 295 296 296 297 296 296 296 296 295 294 292 291 291 290 289 288 288
270 271 273 275 276 276 277 277 278 278 279 281 281 282 283 283 284 285 287 287 288 290 291 292 294 295 296 296 297 297 297 297 297 297 296 295 294 292 289 288 287 287 286
270 272 274 275 275 275 275 276 277 277 278 280 281 282 283 283 284 285 287 288 289 290 292 293 294 295 296 297 297 297 297 297 297 296 296 295 295 293 292 289 287 287 286
270 272 273 274 274 274 275 275 276 277 278 280 280 281 282 283 284 285 286 288 289 290 292 293 295 296 297 297 298 298 298 298 297 297 297 296 295 294 293 291 289 288 287
270 272 273 273 274 274 274 275 275 276 278 279 280 281 282 283 284 286 287 288 289 291 292 294 295 296 297 298 298 298 298 298 298 298 297 297 296 295 294 293 292 291 290
271 272 273 273 274 274 274 275 275 276 277 278 280 281 283 284 285 286 288 289 290 291 293 294 296 297 297 298 298 298 298 298 298 298 298 297 297 296 296 295 294 293 292
272 273 272 272 273 274 274 274 275 276 277 279 280 282 283 284 286 287 289 290 291 292 294 295 296 297 298 298 298 298 299 299 299 299 299 298 298 297 297 296 296 295 294
273 273 272 273 274 274 275 276 276 277 278 279 280 282 283 285 286 287 288 290 292 293 295 296 297 297 298 299 299 299 300 300 300 300 300 300 299 299 298 298 298 297 297
273 273 273 274 275 276 276 276 276 277 278 279 281 282 284 285 286 287 289 291 293 294 295 296 297 298 299 299 300 300 300 301 301 301 301 301 300 300 300 299 299 299 298
274 274 274 274 275 276 276 276 277 278 280 281 282 283 284 285 286 288 291 293 294 295 296 297 298 299 299 300 300 300 301 301 302 302 302 301 301 301 301 301 301 300 299
274 275 275 276 276 276 277 278 279 280 282 283 284 284 285 286 288 290 292 293 295 296 297 298 298 299 300 300 301 301 302 302 302 302 302 302 302 302 302 302 301 301 300
275 276 276 276 276 278 279 279 281 282 283 284 284 285 286 288 289 291 293 295 296 297 298 298 299 299 300 301 301 302 302 303 303 303 303 303 303 303 303 303 302 301 301
275 276 276 277 277 279 280 281 282 283 285 286 286 287 288 289 291 293 294 296 297 297 298 298 299 300 301 301 302 302 303 303 304 304 304 304 305 304 304 303 303 302 301
276 276 277 277 278 280 281 282 283 285 286 287 288 289 290 291 292 293 295 296 297 297 298 299 300 301 301 301 302 303 304 304 305 305 305 306 305 305 304 304 303 302 302
276 276 277 278 279 280 281 282 284 285 287 288 288 290 291 292 293 294 295 296 297 298 298 299 300 301 302 302 303 304 305 306 307 307 307 307 306 305 305 304 304 303 303
278 278 279 279 280 281 282 283 285 287 288 289 289 290 291 292 293 294 295 296 297 298 299 300 301 302 303 303 304 305 306 307 308 308 308 308 307 306 305 305 305 305 304
279 280 280 281 282 282 284 285 287 288 288 289 290 291 292 293 294 295 296 297 298 299 300 301 302 303 304 304 305 306 307 308 308 308 308 308 307 307 306 306 306 305 305
280 281 281 282 283 284 285 287 288 289 289 290 291 292 292 293 295 296 297 298 299 300 301 302 303 304 305 306 306 307 308 308 309 309 309 308 308 307 307 306 306 306 305
282 282 283 284 284 286 287 288 289 290 291 292 292 293 293 294 296 297 297 298 299 301 302 303 304 305 306 307 307 308 308 309 309 310 309 309 308 307 307 307 306 306 305
283 284 285 286 287 287 288 289 290 292 292 293 293 294 295 296 297 298 299 300 301 302 303 304 305 306 307 307 308 309 309 310 310 310 310 309 308 308 307 306 306 305 305
283 285 286 287 288 289 290 291 292 293 293 294 294 295 296 297 298 299 300 301 303 304 305 305 306 307 308 308 309 309 310 310 310 310 309 309 308 308 307 306 305 305 305
284 286 287 287 289 290 291 292 293 293 294 295 296 297 298 299 300 301 302 303 304 305 306 306 307 308 309 309 309 310 310 310 310 309 309 308 308 307 306 305 305 305 305
285 287 288 289 290 291 292 293 294 295 296 297 298 299 300 301 302 303 304 305 306 307 307 308 308 309 309 310 310 310 310 310 310 309 309 308 308 306 306 305 305 305 304
287 288 289 290 291 293 294 295 296 297 298 299 300 301 301 302 303 304 305 306 307 308 308 309 309 310 310 310 311 311 311 310 310 309 309 308 307 307 306 306 306 305 304
Height
5826 5826 5825 5824 5823 5822 5820 5819 5817 5816 5814 5813 5811 5809 5808 5806 5804 5802 5800 5798 5796 5793 5791 5788 5786 5783 5780 5776 5773 5770 5767 5763 5759 5756 5752 5748 5744 5741 5737 5734 5731 5728 5725
5819 5819 5818 5817 5816 5814 5813 5811 5810 5808 5807 5805 5804 5802 5800 5799 5797 5795 5793 5791 5788 5786 5783 5780 5778 5774 5771 5768 5764 5761 5757 5754 5750 5746 5743 5739 5736 5731 5727 5723 5719 5716 5713
5811 5811 5810 5809 5808 5807 5805 5804 5802 5801 5800 5798 5796 5795 5793 5791 5789 5787 5785 5783 5781 5778 5775 5772 5769 5766 5763 5759 5755 5752 5748 5744 5740 5736 5733 5729 5726 5722 5718 5712 5708 5704 5700
5803 5802 5802 5801 5800 5799 5798 5796 5795 5793 5792 5790 5789 5787 5785 5784 5782 5780 5778 5775 5772 5770 5767 5764 5760 5757 5753 5750 5746 5742 5738 5734 5730 5725 5721 5717 5713 5710 5708 5704 5698 5693 5689
5794 5794 5793 5793 5792 5791 5789 5788 5787 5785 5784 5783 5781 5779 5778 5776 5774 5772 5769 5767 5764 5761 5758 5755 5751 5747 5744 5740 5736 5732 5727 5723 5718 5714 5710 5706 5701 5697 5694 5692 5688 5683 5678
5786 5786 5785 5784 5783 5782 5781 5780 5779 5777 5776 5775 5773 5771 5770 5768 5766 5763 5761 5758 5755 5752 5749 5745 5742 5738 5734 5730 5725 5721 5716 5712 5707 5702 5698 5694 5689 5685 5681 5678 5674 5670 5666
5777 5777 5776 5775 5775 5774 5773 5772 5770 5769 5768 5767 5765 5763 5761 5759 5757 5755 5752 5749 5746 5743 5740 5736 5732 5728 5723 5719 5714 5710 5705 5700 5696 5691 5686 5681 5676 5672 5667 5663 5660 5657 5653
5769 5768 5767 5767 5766 5765 5764 5764 5762 5761 5760 5758 5757 5755 5753 5751 5749 5746 5743 5740 5737 5733 5730 5726 5721 5717 5712 5708 5703 5698 5693 5688 5684 5679 5674 5669 5663 5658 5654 5649 5645 5641 5638
5760 5760 5759 5758 5758 5757 5756 5755 5754 5753 5752 5750 5749 5747 5745 5743 5740 5737 5734 5730 5727 5723 5719 5715 5711 5706 5701 5696 5692 5687 5682 5677 5671 5666 5661 5656 5650 5645 5640 5634 5629 5625 5621
5752 5751 5751 5750 5749 5749 5748 5747 5746 5745 5743 5742 5740 5738 5736 5734 5731 5728 5724 5721 5717 5713 5709 5704 5700 5695 5690 5685 5680 5675 5670 5664 5659 5654 5648 5642 5637 5631 5626 5620 5614 5608 5603
5743 5743 5743 5742 5741 5740 5740 5739 5738 5736 5735 5734 5732 5730 5727 5725 5722 5718 5715 5711 5707 5703 5698 5693 5689 5684 5679 5674 5668 5663 5658 5652 5647 5641 5635 5629 5623 5617 5611 5605 5598 5591 5584
5736 5735 5734 5734 5733 5732 5731 5730 5729 5728 5727 5725 5723 5721 5718 5715 5712 5708 5705 5701 5696 5692 5687 5682 5678 5673 5667 5662 5657 5651 5646 5640 5634 5628 5622 5615 5609 5602 5595 5588 5581 5573 5565
5727 5727 5726 5726 5725 5724 5723 5722 5721 5720 5718 5716 5714 5712 5709 5705 5702 5698 5694 5690 5686 5681 5676 5671 5666 5661 5656 5650 5645 5639 5633 5627 5621 5614 5608 5601 5594 5586 5578 5571 5563 5554 5545
5719 5719 5718 5718 5717 5716 5715 5714 5713 5711 5709 5707 5705 5702 5699 5695 5692 5688 5684 5679 5675 5670 5665 5660 5655 5649 5644 5638 5632 5626 5620 5614 5607 5600 5593 5585 5577 5569 5561 5552 5543 5533 5524
5711 5711 5711 5710 5709 5708 5707 5705 5704 5702 5700 5698 5695 5692 5689 5685 5681 5677 5673 5668 5664 5659 5654 5648 5643 5637 5632 5626 5620 5614 5607 5601 5594 5586 5578 5570 5561 5551 5542 5532 5523 5512 5502
5704 5703 5703 5702 5701 5700 5698 5697 5695 5693 5690 5688 5685 5682 5678 5675 5671 5666 5662 5657 5652 5647 5642 5637 5631 5625 5619 5613 5606 5600 5593 5586 5579 5570 5562 5553 5543 5533 5523 5512 5502 5490 5479
5696 5695 5694 5693 5692 5691 5689 5688 5685 5683 5681 5678 5675 5671 5668 5664 5660 5655 5651 5646 5641 5636 5630 5625 5619 5613 5606 5600 5593 5585 5578 5571 5562 5553 5544 5534 5524 5512 5502 5492 5482 5471 5458
5688 5687 5686 5685 5683 5682 5680 5678 5676 5673 5671 5668 5664 5661 5657 5653 5649 5644 5639 5634 5629 5624 5618 5613 5606 5600 5593 5586 5578 5571 5563 5555 5546 5535 5525 5514 5504 5491 5480 5471 5461 5451 5440
5679 5678 5677 5676 5674 5673 5671 5669 5666 5663 5660 5657 5654 5650 5646 5642 5638 5633 5628 5623 5618 5612 5606 5600 5594 5587 5580 5571 5563 5554 5546 5538 5528 5518 5507 5495 5484 5473 5460 5449 5440 5431 5421
5671 5670 5668 5667 5665 5663 5661 5659 5656 5653 5650 5647 5643 5639 5635 5631 5626 5622 5616 5611 5606 5600 5594 5587 5580 5573 5565 5556 5547 5537 5529 5521 5512 5501 5489 5477 5464 5453 5440 5429 5419 5411 5403
5662 5661 5659 5658 5656 5654 5652 5649 5646 5643 5640 5636 5632 5628 5624 5620 5615 5610 5605 5599 5594 5588 5581 5575 5567 5559 5550 5541 5531 5520 5509 5500 5491 5481 5470 5458 5446 5434 5422 5411 5401 5392 5384
5654 5652 5651 5649 5647 5645 5642 5639 5636 5633 5629 5625 5622 5617 5613 5608 5603 5598 5593 5587 5581 5574 5567 5560 5552 5543 5534 5524 5514 5503 5491 5480 5470 5461 5450 5439 5427 5416 5405 5395 5385 5377 5368
5645 5644 5642 5640 5638 5635 5632 5629 5626 5622 5618 5615 5611 5606 5602 5597 5592 5586 5580 5574 5567 5560 5552 5544 5536 5527 5517 5507 5496 5486 5474 5462 5450 5440 5430 5420 5409 5398 5389 5379 5370 5362 5354
5637 5635 5633 5630 5628 5625 5622 5619 5615 5612 5608 5604 5599 5595 5590 5585 5580 5574 5567 5560 5553 5545 5536 5528 5519 5510 5500 5489 5478 5468 5457 5445 5433 5422 5413 5403 5392 5382 5373 5365 5356 5349 5342
5627 5625 5623 5621 5618 5615 5612 5608 5605 5601 5597 5593 5588 5584 5578 5573 5567 5561 5553 5546 5538 5528 5519 5510 5501 5491 5483 5472 5459 5447 5437 5425 5414 5403 5395 5385 5376 5367 5359 5351 5344 5337 5331
5618 5616 5614 5611 5608 5605 5602 5598 5594 5590 5586 5582 5577 5572 5566 5560 5554 5547 5540 5531 5522 5513 5502 5492 5482 5472 5462 5452 5441 5429 5417 5406 5395 5384 5376 5368 5360 5352 5345 5339 5333 5326 5321